STARLINK-4605, 53616

Orbit data source: Space-Track

STARLINK-4605, 53616 is a payload satellite owned by SpaceX/Seattle (US) in LEO that was launched on Sun, 28 Aug 2022 UTC via an FALCON 9 launch vehicle from the Air Force Eastern Test Range (AFETR). Payloads include a variety of satellites, spacecraft, and rockets equipped with specific instruments for various scientific and technological missions. These include communications satellites like Starlink; space stations such as the ISS; scientific satellites like the Hubble; Earth observation satellites from companies like Planet Labs, Umbra, and HawkEye 360; GPS; miniature CubeSats for education and research; and military/defense satellites.

Loading next visibility...
STARLINK-4605 details
Identifier
53616, 2022-104AE
Orbit
LEO
Last TLE update12 hours ago
Origin
Flag of USSpaceX/Seattle (US)
ManufacturerSpaceX/Seattle
MissionOperational Commercial Communications
Bus & MotorSTARLINK, Unknown motor
Mass300 kg wet, ~290 kg dry
Launch date (UTC)
2022-08-28 (2 years ago)
Launch vehicle
FALCON 9
Launch site
Air Force Eastern Test Range (AFETR)
Object type
Payload
Rocket body
Debris
Shape & HBRBox + 1 Pan, 8.86 m
Radar Cross Section13.562 m², Large (>1 m²)

Expand to show TLE details & history

TLE from 12 hours ago
0 STARLINK-4605
1 53616U 22104AE  24361.24175686  .00006356  00000-0  41697-3 0  9995
2 53616  53.2200  32.2622 0001970 102.4557 257.6656 15.08847233129698
Epoch: 2024-12-26T05:48Z
Definitive object data (Epoch: 2024-12-26T05:48:07.792Z)
Latitude-0.00001°
Longitude-149.99425°
Altitude540.91 km
Speed7.593 km/s
True Right ascension02h 09m 02s
True Declination0° 00' 00"
Sunlit
Object was in full shadow at TLE epoch
Visualization TLE readout
Latitude-7.6133°
Longitude33.47057°
Altitude541.792 km
Speed7.592 km/s
Apparent Right ascension11h 20m 57s
Apparent Declination-47° 39' 41"
Sunlit
Object is in daylight
Visualization observer readout
Local Sidereal Time17:08:20
Azimuth228.704° WSW
Elevation-26.48°
Doppler factor1
Orbital elements
Apogee altitude541.329 km
Perigee altitude538.603 km
Semi-major axis6,918.103 km
Eccentricity0.000197
Inclination53.22°
RAAN32.2622°
Arg. of periapsis102.4557°
True anomaly257.64355°
Mean anomaly257.6656°
Eccentric anomaly257.65457°
Mean motion3.77192 °/min
BSTAR0.00041697
Orbital period95.44 mins
Loading maneuver chart data...
Loading historical data...
Loading historical data...
Loading historical data...
Loading historical data...
Loading historical data...
Loading historical data...
Loading historical data...

STARLINK-4605 Visibility forecast

Observer location: undefined°, undefined

Span
Click to sort rows by Start time (UTC) header in descending order
Start Az.
Max El. time (UTC)
Max El. Az.
Max El.
End time (UTC)
End Az.
6 mins2024-12-27 04:12:57.583Z192.325° SSW2024-12-27 04:15:57.583Z129.345° SE29.518°2024-12-27 04:18:57.583Z70.341° E
5 mins2024-12-27 05:52:57.583Z274.161° WNW2024-12-27 05:54:57.583Z320.53° NNW29.937°2024-12-27 05:57:57.583Z29.309° NE
6 mins2024-12-27 10:53:57.583Z331.952° NNW2024-12-27 10:56:57.583Z47.738° ENE30.355°2024-12-27 10:59:57.583Z98.578° ESE
5 mins2024-12-27 12:33:57.583Z274.558° WNW2024-12-27 12:35:57.583Z223.356° SW28.121°2024-12-27 12:38:57.583Z167.853° S
|